EW5773 Weather Reports


time (UTC)temp
C
wind
direction
speed
KPH
gust
KPH
rain 1hr
cm
rain 24hr
cm
rain mn
cm
humidity
%
barometer
mb
20260507153009 17 340 1.6 6.4 0.00 0.00 0.00 51 1013.7
20260507151521 17 53 1.6 9.7 0.00 0.00 0.00 51 1014.0
20260507150018 17 360 1.6 9.7 0.00 0.00 0.00 51 1014.0
20260507144517 17 40 4.8 9.7 0.00 0.00 0.00 51 1014.0
20260507143020 17 360 3.2 12.9 0.00 0.00 0.00 51 1014.1
20260507141515 17 44 6.4 17.7 0.00 0.00 0.00 49 1014.0
20260507140015 19 11 6.4 12.9 0.00 0.00 0.00 47 1014.2
20260507134515 18 81 0.0 3.2 0.00 0.00 0.00 48 1014.5
20260507133009 17 79 4.8 11.3 0.00 0.00 0.00 53 1014.5
20260507131513 16 341 1.6 8.0 0.00 0.00 0.00 54 1014.4
20260507130010 17 309 6.4 12.9 0.00 0.00 0.00 53 1014.5
20260507124509 16 319 3.2 9.7 0.00 0.00 0.00 54 1014.5
20260507123018 16 92 4.8 9.7 0.00 0.00 0.00 52 1014.6
20260507121517 15 360 6.4 9.7 0.00 0.00 0.00 57 1014.8
20260507120032 15 346 4.8 14.5 0.00 0.00 0.00 57 1014.8
20260507114520 16 50 4.8 14.5 0.00 0.00 0.00 57 1014.9
20260507113018 15 259 0.0 8.0 0.00 0.00 0.00 60 1014.7
20260507111551 14 341 1.6 6.4 0.00 0.00 0.00 64 1015.0
20260507110009 13 344 3.2 12.9 0.00 0.00 0.00 64 1014.9
20260507104510 13 329 1.6 8.0 0.00 0.00 0.00 65 1015.0
20260507103007 13 311 3.2 14.5 0.00 0.00 0.00 66 1015.0
20260507101506 13 321 6.4 16.1 0.00 0.00 0.00 65 1015.1
20260507100003 13 16 3.2 9.7 0.00 0.00 0.00 66 1015.1
20260507094502 13 355 1.6 8.0 0.00 0.00 0.00 64 1015.2
20260507093004 14 325 3.2 12.9 0.00 0.00 0.00 67 1015.2
20260507091503 13 339 3.2 14.5 0.00 0.00 0.00 67 1015.1
20260507090022 13 343 4.8 11.3 0.00 0.00 0.00 68 1015.0
20260507084516 13 338 6.4 14.5 0.00 0.00 0.00 72 1014.9
20260507083013 13 360 3.2 9.7 0.00 0.00 0.00 74 1015.0
20260507081520 12 360 3.2 14.5 0.00 0.00 0.00 78 1015.0
20260507080011 12 47 4.8 11.3 0.00 0.00 0.00 81 1014.9
20260507074521 11 32 6.4 9.7 0.00 0.00 0.00 85 1014.9
20260507073008 10 51 3.2 9.7 0.00 0.00 0.00 87 1014.9
20260507071506 10 40 4.8 12.9 0.00 0.00 0.00 89 1014.8
20260507070010 8 16 3.2 11.3 0.00 0.00 0.00 90 1014.9
20260507064506 8 21 3.2 9.7 0.00 0.03 0.00 91 1014.9
20260507063103 7 338 4.8 8.0 0.00 0.03 0.00 91 1014.8
20260507061518 7 346 1.6 8.0 0.00 0.03 0.00 92 1014.7
20260507060017 6 332 3.2 8.0 0.00 0.03 0.00 92 1014.7
20260507054519 5 330 3.2 8.0 0.00 0.05 0.00 92 1014.6
20260507053012 5 324 3.2 8.0 0.00 0.05 0.00 92 1014.4
20260507051510 5 329 3.2 8.0 0.00 0.05 0.00 92 1014.3
20260507050017 5 316 4.8 8.0 0.00 0.05 0.00 91 1014.1
20260507044506 5 310 4.8 8.0 0.00 0.08 0.00 91 1014.1
20260507043004 5 313 4.8 6.4 0.00 0.08 0.00 91 1014.0
20260507041505 5 313 4.8 8.0 0.00 0.08 0.00 91 1014.0
20260507040007 5 311 4.8 8.0 0.00 0.08 0.00 91 1013.8
20260507034603 5 315 4.8 8.0 0.00 0.13 0.00 90 1013.7
20260507031515 5 313 4.8 8.0 0.00 0.13 0.00 90 1013.8
20260507030018 5 311 6.4 9.7 0.00 0.13 0.00 90 1013.8
20260507024511 5 310 6.4 8.0 0.00 0.15 0.00 90 1013.7
20260507023010 5 311 4.8 9.7 0.00 0.15 0.00 90 1013.9
20260507021509 5 313 4.8 9.7 0.00 0.15 0.00 90 1013.9
20260507020007 5 315 3.2 6.4 0.00 0.15 0.00 90 1013.7
20260507014508 5 315 3.2 8.0 0.00 0.20 0.00 90 1013.6
20260507013007 5 315 1.6 4.8 0.00 0.20 0.00 89 1013.5
20260507011506 5 315 0.0 4.8 0.00 0.20 0.00 89 1013.6
20260507010007 5 315 3.2 8.0 0.00 0.20 0.00 89 1013.4
20260507004507 5 313 4.8 9.7 0.00 0.23 0.00 89 1013.5
20260507003004 6 312 6.4 8.0 0.00 0.23 0.00 89 1013.4
20260507001607 6 313 3.2 8.0 0.00 0.23 0.00 88 1013.5
20260507000030 6 308 3.2 8.0 0.00 0.23 0.00 88 1013.4
20260506234521 6 315 1.6 6.4 0.00 0.25 0.00 87 1013.4
20260506233017 6 316 3.2 6.4 0.00 0.25 0.00 87 1013.5
20260506231515 6 316 3.2 8.0 0.00 0.25 0.00 86 1013.4
20260506230013 6 316 3.2 4.8 0.00 0.25 0.00 86 1013.5
20260506224512 6 316 3.2 6.4 0.00 0.33 0.00 86 1013.3
20260506223012 7 317 3.2 6.4 0.00 0.33 0.00 85 1013.4
20260506221510 7 316 3.2 8.0 0.00 0.33 0.00 84 1013.2
20260506220015 7 315 3.2 6.4 0.00 0.33 0.00 84 1013.3
20260506214506 7 315 1.6 8.0 0.00 0.46 0.33 83 1013.1
20260506213127 7 316 3.2 8.0 0.00 0.46 0.33 82 1013.0
20260506211518 8 317 3.2 6.4 0.00 0.46 0.33 81 1013.0
20260506210016 8 316 3.2 6.4 0.00 0.46 0.33 80 1012.9
20260506204520 8 317 3.2 6.4 0.00 0.69 0.33 79 1012.8
20260506203017 9 316 1.6 6.4 0.00 0.69 0.33 78 1012.7
20260506201519 9 315 3.2 6.4 0.00 0.69 0.33 77 1012.6
20260506200010 10 315 1.6 6.4 0.00 0.69 0.33 76 1012.5
20260506194515 10 311 3.2 8.0 0.00 0.99 0.33 75 1012.3
20260506193006 10 312 4.8 8.0 0.00 0.99 0.33 74 1012.1
20260506191505 11 304 3.2 8.0 0.00 0.99 0.33 73 1011.8
20260506190006 11 320 4.8 12.9 0.00 0.99 0.33 71 1011.7
20260506184605 11 314 4.8 12.9 0.00 1.17 0.33 70 1011.6
20260506183019 11 300 9.7 17.7 0.00 1.17 0.33 68 1011.4
20260506181517 12 315 11.3 20.9 0.00 1.17 0.33 67 1011.3
20260506180016 12 306 6.4 19.3 0.00 1.17 0.33 69 1011.2
20260506174515 12 307 12.9 20.9 0.00 1.35 0.33 70 1011.0
20260506173013 12 311 12.9 20.9 0.00 1.35 0.33 70 1010.9
20260506171512 12 310 17.7 29.0 0.00 1.35 0.33 67 1010.8
20260506170011 13 305 12.9 27.4 0.00 1.35 0.33 65 1010.5
20260506164508 14 331 8.0 20.9 0.00 1.40 0.33 67 1010.6
20260506163019 14 11 12.9 22.5 0.00 1.40 0.33 68 1010.4
20260506161506 15 302 11.3 25.7 0.00 1.40 0.33 62 1010.5
20260506160016 14 342 14.5 25.7 0.00 1.40 0.33 62 1010.4
20260506154517 15 328 16.1 24.1 0.00 1.55 0.33 61 1010.5